Location: Newark
(29.9790°N, 31.1340°E)
Time: 08:18:07
(UTC+00:00)

deb Explorer IX - Visible Passes

Search period start: 19 January 2020 00:00
Search period end: 29 January 2020 00:00
Orbit: 548 x 1101 km, 38.8° (Epoch: 19 January)

Date Brightness Start Highest point End Pass type
(mag) Time Alt. Az. Time Alt. Az. Time Alt. Az.
19 Jan ? 01:50:45 26° ENE 01:50:45 26° ENE 01:53:25 10° E visible
19 Jan ? 03:32:07 27° WNW 03:35:33 86° SSW 03:40:47 10° ESE visible
20 Jan ? 01:29:46 18° ENE 01:29:46 18° ENE 01:31:15 10° E visible
20 Jan ? 03:11:08 43° WNW 03:13:15 85° SSW 03:18:38 10° ESE visible
21 Jan ? 01:08:49 11° E 01:08:49 11° E 01:09:05 10° E visible
21 Jan ? 02:50:11 69° WNW 02:50:56 84° SSW 02:56:30 10° ESE visible
22 Jan ? 02:29:17 71° SE 02:29:17 71° SE 02:34:19 10° ESE visible
22 Jan ? 04:10:54 10° W 04:15:06 20° SW 04:18:53 10° S visible
22 Jan ? 18:47:47 10° SSW 18:47:48 10° SSW 18:47:48 10° SSW visible
23 Jan ? 02:08:27 42° SE 02:08:27 42° SE 02:12:08 10° ESE visible
23 Jan ? 03:49:49 14° WSW 03:52:46 20° SW 03:56:42 10° S visible
23 Jan ? 18:25:26 10° SSW 18:27:07 18° SSW 18:27:07 18° SSW visible
24 Jan ? 01:47:39 25° SE 01:47:39 25° SE 01:49:55 10° ESE visible
24 Jan ? 03:29:02 19° WSW 03:30:26 20° SW 03:34:30 10° S visible
24 Jan ? 18:03:07 10° SSW 18:06:25 29° SSW 18:06:25 29° SSW visible
25 Jan ? 01:26:54 14° SE 01:26:54 14° SE 01:27:41 10° SE visible
25 Jan ? 03:08:16 20° SW 03:08:16 20° SW 03:12:17 10° S visible
25 Jan ? 17:40:48 10° SSW 17:45:43 41° S 17:45:43 41° S visible
26 Jan ? 02:47:33 18° SSW 02:47:33 18° SSW 02:50:02 10° S visible
26 Jan ? 17:18:30 10° SW 17:24:30 46° SE 17:24:59 45° SE visible
26 Jan ? 19:05:07 10° WSW 19:06:21 16° W 19:06:21 16° W visible
27 Jan ? 02:26:50 13° S 02:26:50 13° S 02:27:46 10° S visible
27 Jan ? 16:56:13 10° SW 17:02:04 46° SE 17:04:11 35° E visible
27 Jan ? 18:42:49 10° WSW 18:45:34 27° W 18:45:34 27° W visible
28 Jan ? 16:33:57 10° SW 16:39:39 46° SE 16:43:21 24° E visible
28 Jan ? 18:20:31 10° WSW 18:24:43 42° W 18:24:43 42° W visible
